GW719 Weather Reports


time (UTC)temp
F
wind
direction
speed
knots
gust
knots
rain 1hr
in
rain 24hr
in
rain mn
in
humidity
%
barometer
mb
20260506024517 52 27 3.5 7.8 0.00 0.00 0.00 75 1011.0
20260506023517 52 27 3.5 7.0 0.00 0.00 0.00 75 1010.9
20260506022517 52 23 3.5 7.0 0.00 0.00 0.00 75 1010.6
20260506021518 52 20 1.7 5.2 0.00 0.00 0.00 76 1010.5
20260506020538 52 24 3.5 6.1 0.00 0.00 0.00 76 1010.2
20260506015558 52 15 2.6 5.2 0.00 0.00 0.00 76 1009.9
20260506014518 52 19 1.7 4.3 0.00 0.00 0.00 76 1009.6
20260506013518 52 26 3.5 7.0 0.00 0.00 0.00 76 1009.6
20260506012538 52 17 3.5 7.0 0.00 0.00 0.00 76 1009.2
20260506011517 52 28 1.7 4.3 0.00 0.00 0.00 76 1009.2
20260506010519 52 17 3.5 8.7 0.00 0.00 0.00 75 1009.2
20260506005536 52 40 3.5 8.7 0.00 0.00 0.00 75 1008.9
20260506004516 52 30 4.3 13.9 0.00 0.00 0.00 75 1008.9
20260506003536 52 27 4.3 8.7 0.00 0.00 0.00 75 1008.8
20260506002516 53 26 4.3 7.0 0.00 0.00 0.00 74 1009.1
20260506001516 53 14 3.5 6.1 0.00 0.00 0.00 73 1008.9
20260506000516 53 25 5.2 10.4 0.00 0.00 0.00 72 1008.4
20260505235517 53 13 4.3 7.0 0.00 0.00 0.00 71 1008.5
20260505234517 53 23 5.2 7.8 0.00 0.00 0.00 71 1008.7
20260505233537 53 16 3.5 8.7 0.00 0.00 0.00 71 1008.6
20260505232517 53 18 3.5 6.1 0.00 0.00 0.00 71 1008.3
20260505231517 53 32 3.5 8.7 0.00 0.00 0.00 72 1008.2
20260505230619 54 46 4.3 9.6 0.00 0.00 0.00 71 1008.4
20260505225518 54 23 4.3 8.7 0.00 0.00 0.00 71 1007.9
20260505224518 54 25 5.2 10.4 0.00 0.00 0.00 71 1007.8
20260505223518 54 16 3.5 7.8 0.00 0.00 0.00 70 1007.5
20260505222518 55 13 3.5 7.8 0.00 0.00 0.00 70 1007.4
20260505221519 55 18 3.5 7.0 0.00 0.00 0.00 70 1007.1
20260505220515 55 32 4.3 13.9 0.00 0.00 0.00 71 1006.9
20260505215516 55 24 4.3 9.6 0.00 0.00 0.00 71 1007.1
20260505214516 55 15 3.5 7.0 0.00 0.00 0.00 72 1007.3
20260505213516 55 16 4.3 9.6 0.00 0.00 0.00 72 1007.1
20260505212516 55 26 3.5 9.6 0.00 0.00 0.00 73 1007.4
20260505211517 55 41 3.5 6.1 0.00 0.00 0.00 73 1007.2
20260505210517 55 8 4.3 9.6 0.00 0.00 0.00 73 1006.9
20260505205517 55 6 3.5 6.1 0.00 0.00 0.00 74 1006.6
20260505204517 55 12 3.5 6.1 0.00 0.00 0.00 75 1006.7
20260505203518 55 15 3.5 7.0 0.00 0.00 0.00 76 1007.1
20260505202517 55 12 3.5 7.8 0.00 0.00 0.00 76 1007.2
20260505201518 55 13 3.5 7.0 0.00 0.00 0.00 77 1006.8
20260505200521 56 3 4.3 7.8 0.00 0.00 0.00 76 1006.6
20260505195520 56 24 3.5 7.0 0.00 0.00 0.00 76 1006.6
20260505194521 56 5 3.5 6.1 0.00 0.00 0.00 76 1006.5
20260505193701 56 7 4.3 7.0 0.00 0.00 0.00 76 1006.6
20260505192541 56 12 2.6 6.1 0.00 0.00 0.00 78 1006.6
20260505191521 56 9 2.6 7.0 0.00 0.00 0.00 79 1006.3
20260505190522 56 21 2.6 5.2 0.00 0.00 0.00 79 1006.2
20260505185536 56 15 2.6 6.1 0.00 0.00 0.00 80 1006.2
20260505184519 56 10 2.6 4.3 0.00 0.00 0.00 80 1006.0
20260505183516 56 15 3.5 7.0 0.00 0.00 0.00 80 1006.1
20260505182516 56 6 2.6 5.2 0.00 0.00 0.00 81 1006.0
20260505181517 56 16 2.6 6.1 0.00 0.00 0.00 82 1006.1
20260505180516 56 10 2.6 6.1 0.00 0.00 0.00 83 1006.1
20260505175517 57 9 3.5 7.0 0.00 0.00 0.00 83 1005.9
20260505174517 57 4 3.5 8.7 0.00 0.00 0.00 83 1005.2
20260505173537 57 9 4.3 7.8 0.00 0.00 0.00 83 1005.2
20260505172517 57 12 3.5 7.0 0.00 0.00 0.00 83 1005.1
20260505171518 57 21 3.5 6.1 0.00 0.00 0.00 84 1005.1
20260505170518 57 13 4.3 7.8 0.00 0.00 0.00 84 1005.2
20260505165517 58 13 4.3 11.3 0.00 0.00 0.00 84 1004.6
20260505164538 58 13 4.3 7.8 0.00 0.00 0.00 84 1004.7
20260505163518 58 18 4.3 7.8 0.00 0.00 0.00 84 1004.3
20260505162518 59 15 3.5 7.0 0.00 0.00 0.00 84 1004.4
20260505161515 59 10 3.5 10.4 0.00 0.00 0.00 83 1004.3
20260505160516 60 14 4.3 7.8 0.00 0.00 0.00 83 1004.1
20260505152516 68 11 3.5 7.8 0.00 0.00 0.00 81 1003.0
20260505151517 70 18 3.5 6.1 0.00 0.00 0.00 79 1002.7
20260505150517 71 34 1.7 4.3 0.00 0.00 0.00 78 1002.4
20260505140518 69 164 2.6 5.2 0.00 0.00 0.00 79 1001.7
20260505124516 68 101 4.3 8.7 0.00 0.00 0.00 80 1002.2
20260505123516 67 100 3.5 7.8 0.00 0.00 0.00 80 1002.2
20260505122516 67 106 3.5 7.0 0.00 0.00 0.00 80 1001.9
20260505121517 67 85 3.5 6.1 0.00 0.00 0.00 80 1001.8
20260505120517 67 84 4.3 7.8 0.00 0.00 0.00 80 1001.8
20260505115517 67 91 4.3 8.7 0.00 0.00 0.00 81 1001.8
20260505114517 67 77 6.1 12.2 0.00 0.00 0.00 80 1001.7
20260505113517 67 76 6.1 9.6 0.00 0.00 0.00 81 1001.6
20260505112517 67 61 1.7 3.5 0.00 0.00 0.00 81 1001.6
20260505111517 67 34 1.7 4.3 0.00 0.00 0.00 80 1001.5
20260505110558 67 65 0.9 5.2 0.00 0.00 0.00 80 1001.2
20260505101536 68 93 3.5 7.0 0.00 0.00 0.00 79 1000.6
20260505100516 68 86 3.5 7.0 0.00 0.00 0.00 79 1000.5
20260505095516 68 109 3.5 7.0 0.00 0.00 0.00 79 1000.3
20260505094556 68 94 3.5 8.7 0.00 0.00 0.00 78 1000.4
20260505093516 69 97 3.5 6.1 0.00 0.00 0.00 77 1000.3
20260505092518 69 100 3.5 6.1 0.00 0.00 0.00 77 1000.4
20260505091616 69 104 2.6 7.0 0.00 0.00 0.00 77 1000.4
20260505090517 69 93 1.7 6.1 0.00 0.00 0.00 77 1000.5
20260505085517 69 108 3.5 7.0 0.00 0.00 0.00 77 1000.5
20260505084517 69 99 2.6 6.1 0.00 0.00 0.00 76 1000.6
20260505083517 69 95 2.6 6.1 0.00 0.00 0.00 76 1000.7
20260505082517 69 96 3.5 7.8 0.00 0.00 0.00 75 1000.7
20260505081617 69 88 2.6 6.1 0.00 0.00 0.00 75 1000.8
20260505080518 69 79 3.5 7.0 0.00 0.00 0.00 75 1000.7
20260505075518 69 93 2.6 6.1 0.00 0.00 0.00 75 1000.9
20260505074518 70 75 3.5 7.0 0.00 0.00 0.00 74 1001.1
20260505073518 70 74 4.3 7.0 0.00 0.00 0.00 74 1001.2
20260505072518 70 81 2.6 5.2 0.00 0.00 0.00 74 1001.3
20260505071518 70 64 1.7 3.5 0.00 0.00 0.00 75 1001.5
20260505070518 70 76 1.7 3.5 0.00 0.00 0.00 75 1001.5
20260505065517 69 73 1.7 4.3 0.00 0.00 0.00 75 1001.5
20260505064517 69 68 0.9 5.2 0.00 0.00 0.00 75 1001.8
20260505063517 70 21 0.9 2.6 0.00 0.00 0.00 75 1002.0
20260505062519 70 14 1.7 2.6 0.00 0.00 0.00 74 1001.8
20260505061518 71 58 0.9 2.6 0.00 0.00 0.00 72 1001.3
20260505060518 70 162 1.7 4.3 0.00 0.00 0.00 72 1001.0
20260505055518 70 164 1.7 5.2 0.00 0.00 0.00 72 1000.9
20260505054518 70 167 1.7 5.2 0.00 0.00 0.00 72 1001.1
20260505053538 71 162 1.7 4.3 0.00 0.00 0.00 71 1001.1
20260505052536 71 160 2.6 6.1 0.00 0.00 0.00 70 1001.3
20260505051516 71 176 3.5 7.8 0.00 0.00 0.00 70 1001.4
20260505050516 70 172 2.6 7.8 0.00 0.00 0.00 70 1001.2
20260505041517 71 182 4.3 7.8 0.00 0.00 0.00 67 1001.1
20260505040517 71 174 6.1 10.4 0.00 0.00 0.00 66 1001.4
20260505035517 71 167 3.5 7.8 0.00 0.00 0.00 67 1001.7
20260505034557 70 169 4.3 7.8 0.00 0.00 0.00 67 1001.5
20260505033517 70 173 3.5 8.7 0.00 0.00 0.00 69 1002.0
20260505032517 71 167 3.5 7.8 0.00 0.00 0.00 67 1002.2
20260505031518 71 174 4.3 8.7 0.00 0.00 0.00 64 1002.3
20260505030518 71 174 3.5 7.0 0.00 0.00 0.00 64 1002.2
20260505025520 72 175 2.6 6.1 0.00 0.00 0.00 64 1002.3